236  
ASUS44 KLCH 291110  
RWRLCH  
REGIONAL WEATHER ROUNDUP  
NATIONAL WEATHER SERVICE LAKE CHARLES LA  
600 AM CDT SAT JUL 29 2017  
 
NOTE: "FAIR" INDICATES FEW OR NO CLOUDS BELOW 12,000 FEET WITH NO  
SIGNIFICANT WEATHER AND/OR S TO VISIBILITY
.  
 
ACROSS SOUTHEAST TEXAS  
 
CITY SKY/WX TMP DP RH WIND PRES REMARKS
 
BEAUMONT CLEAR 78 77 96 SW5 29.90R  
BEAUMONT CITY FAIR 80 76 89 MISG 29.91R  
ORANGE MOSUNNY 81 79 94 W6 29.91R  
JASPER N/A 81 77 89 SW6 29.91S  

 
 
ACROSS CENTRAL LOUISIANA  
 
CITY SKY/WX TMP DP RH WIND PRES REMARKS
 
LEESVILLE CLOUDY 79 76 91 SW5 29.88R  
FULLERTON CLOUDY 80 76 87 VRB5 29.86R  
ALEXANDRIA INT CLOUDY 80 75 84 W6 29.85R  
ESLER FIELD CLOUDY 80 77 90 SW8 29.86R  
DERIDDER FAIR 79 78 96 SW7 29.91R  
OAKDALE CLOUDY 80 77 91 SW6 29.88S  
OPELOUSAS CLOUDY 79 78 96 W5 29.88S  

 
 
ACROSS SOUTHWEST AND SOUTH CENTRAL LOUISIANA  
 
CITY SKY/WX TMP DP RH WIND PRES REMARKS
 
SULPHUR MOSUNNY 81 78 92 W3 29.91R  
LAKE CHARLES CLEAR 82 79 90 W7 29.89R  
CHENNAULT INT MOCLDY 82 78 87 W7 29.90R  
CAMERON PHI MOSUNNY 84 77 79 W9G17 29.89R  
DEQUINCY FAIR 78 76 95 CALM 29.90R  
JENNINGS CLOUDY 80 78 94 SW5 29.89S  
LAFAYETTE CLOUDY 82 79 90 SW8 29.89R  
NEW IBERIA PTCLDY 80 77 90 W5 29.90R  
ABBEVILLE FAIR 79 79 100 SW3 29.90R  
PATTERSON MOCLDY 80 76 87 SW7 29.90R  
SALT POINT N/A 85 76 74 VRB7 29.88R  

 
 
SELECTED SITES ACROSS THE REGION  
 
CITY SKY/WX TMP DP RH WIND PRES REMARKS
 
HOUSTON BUSH PTCLDY 81 76 84 W5 29.91R  
HOUSTON HOBBY PTCLDY 82 76 81 W8 29.90R  
GALVESTON CLEAR 83 78 85 SW10 29.91R  
COLLEGE STAT PTCLDY 79 76 90 SW7 29.91R  
CONROE CLOUDY 79 76 90 SW9 29.91R  
HUNTSVILLE CLOUDY 80 75 84 SW9 29.91R  
LUFKIN PTCLDY 77 74 90 SW5 29.89R  
SHREVEPORT LGT RAIN 78 76 93 NE5 29.89R  
MONROE LGT RAIN 77 74 90 NW10 29.89R  
NATCHEZ MS CLOUDY 75 73 93 SW6 29.90R  
BATON ROUGE MOCLDY 80 78 94 SW8 29.88R  
N.O. INTL ARPT CLOUDY 79 78 97 SW5 29.88R  
SLIDELL CLOUDY 83 78 85 VRB3 29.86R  

 
 
MARINE REPORTS  
 
STATION/POSITION TIME SKY/WX TEMP WIND PRES VSBY
 
AIR SEA DIR/SP/G  
(UTC) (F) (DEG/KT/KT) (MB) (MI)  
BUOY 30 S HIGH I 0950 85 85 240/ 19/ 21 1011.6  
WVE H/P(F/S)= 3/ 4  
 
SEA RIM ST PARK 1100 81 260/ 8/ 10 1013.1R  
PORT ARTHUR 1048 82 87 250/ 7/ 13 1012.7R  
SABINE PASS N 1048 82 89 260/ 4/ 8 1014.1R  
TEXAS POINT NOT AVBL  
CALCASIEU PASS 1048 87 270/ 14/ 19 1011.5R  
LK CHARLES BEACH 1048 82 89 1012.8R  
MARSH ISLAND 1000 85 N/A  
FRESH WATER LOCK 1048 83 89 240/ 9/ 12 1012.5R  
AMERADA PASS 1048 84 89 250/ 4/ 9 1012.3R  

 
 
 
CLICK HERE TO GO TO PREVIOUS BULLETINS.

The Nexlab LA Page
The Nexlab TX Page Main Text Page